Location: Haliburton Scout Reserve
(45.0900°N, 78.3200°W)
Time: 02:33:16
(UTC-04:00)

NANOSAT C BR1 - Pass Details

Date: 19 May 2022
Orbit: 583 x 601 km, 98.0° (Epoch: 27 June)

Event Time Altitude Azimuth Distance (km) Brightness Sun altitude
Rises 03:40:45 0° 9° (N) 2,825 ? -16.6°
Reaches altitude 10° 03:42:57 10° 5° (N) 1,918 ? -16.4°
Maximum altitude 03:47:01 55° 288° (WNW) 707 ? -15.9°
Enters shadow 03:48:52 29° 223° (SW) 1,076 ? -15.7°
